| time (UTC) | temp F | wind direction | speed MPH | gust MPH | rain 1hr in | rain 24hr in | rain mn in | humidity % | barometer mb |
| 20260906144532 | 86 | 29 | 1.0 | 3.0 | 0.00 | 0.00 | 0.00 | 82 | 1012.1 |
| 20260906143026 | 86 | 285 | 0.0 | 0.0 | 0.00 | 0.00 | 0.00 | 83 | 1012.2 |
| 20260906141532 | 86 | 242 | 0.0 | 0.0 | 0.00 | 0.00 | 0.00 | 84 | 1012.2 |
| 20260906140018 | 85 | 253 | 0.0 | 0.0 | 0.00 | 0.00 | 0.00 | 86 | 1012.1 |
| 20260906134509 | 83 | 253 | 0.0 | 0.0 | 0.00 | 0.00 | 0.00 | 89 | 1012.0 |
| 20260906133005 | 81 | 253 | 0.0 | 0.0 | 0.00 | 0.00 | 0.00 | 92 | 1012.0 |
| 20260906131504 | 80 | 253 | 0.0 | 0.0 | 0.00 | 0.00 | 0.00 | 94 | 1011.8 |
| 20260906130059 | 80 | 253 | 0.0 | 0.0 | 0.00 | 0.00 | 0.00 | 94 | 1011.5 |
| 20260906124557 | 79 | 253 | 0.0 | 0.0 | 0.00 | 0.00 | 0.00 | 94 | 1011.4 |
| 20260906123054 | 79 | 253 | 0.0 | 0.0 | 0.00 | 0.00 | 0.00 | 94 | 1011.2 |
| 20260906121552 | 79 | 253 | 0.0 | 0.0 | 0.00 | 0.00 | 0.00 | 93 | 1011.0 |
| 20260906120053 | 79 | 253 | 0.0 | 0.0 | 0.00 | 0.00 | 0.00 | 93 | 1010.9 |
| 20260906114551 | 79 | 253 | 0.0 | 0.0 | 0.00 | 0.00 | 0.00 | 93 | 1010.8 |
| 20260906113055 | 79 | 253 | 0.0 | 0.0 | 0.00 | 0.00 | 0.00 | 93 | 1010.7 |
| 20260906111549 | 79 | 253 | 0.0 | 0.0 | 0.00 | 0.00 | 0.00 | 93 | 1010.5 |
| 20260906110045 | 79 | 253 | 0.0 | 0.0 | 0.00 | 0.00 | 0.00 | 92 | 1010.4 |
| 20260906104548 | 79 | 253 | 0.0 | 0.0 | 0.00 | 0.00 | 0.00 | 92 | 1010.4 |
| 20260906103042 | 79 | 253 | 0.0 | 0.0 | 0.00 | 0.00 | 0.00 | 92 | 1010.4 |
| 20260906101541 | 80 | 253 | 0.0 | 0.0 | 0.00 | 0.00 | 0.00 | 92 | 1010.3 |
| 20260906100044 | 80 | 253 | 0.0 | 0.0 | 0.00 | 0.00 | 0.00 | 91 | 1010.2 |
| 20260906094605 | 80 | 253 | 0.0 | 0.0 | 0.00 | 0.00 | 0.00 | 91 | 1010.2 |
| 20260906093039 | 80 | 253 | 0.0 | 0.0 | 0.00 | 0.00 | 0.00 | 91 | 1010.1 |
| 20260906091543 | 80 | 253 | 0.0 | 0.0 | 0.00 | 0.00 | 0.00 | 90 | 1010.0 |
| 20260906090037 | 80 | 253 | 0.0 | 0.0 | 0.00 | 0.00 | 0.00 | 90 | 1010.1 |
| 20260906084539 | 80 | 253 | 0.0 | 0.0 | 0.00 | 0.00 | 0.00 | 91 | 1010.1 |
| 20260906083038 | 80 | 253 | 0.0 | 0.0 | 0.00 | 0.00 | 0.00 | 91 | 1009.9 |
| 20260906081545 | 80 | 253 | 0.0 | 0.0 | 0.00 | 0.00 | 0.00 | 90 | 1010.1 |
| 20260906080036 | 80 | 253 | 0.0 | 0.0 | 0.00 | 0.00 | 0.00 | 91 | 1010.2 |
| 20260906074534 | 80 | 253 | 0.0 | 0.0 | 0.00 | 0.00 | 0.00 | 90 | 1010.1 |
| 20260906073031 | 80 | 255 | 0.0 | 0.0 | 0.00 | 0.00 | 0.00 | 90 | 1010.2 |
| 20260906071532 | 81 | 238 | 0.0 | 3.0 | 0.00 | 0.00 | 0.00 | 90 | 1010.1 |
| 20260906070030 | 81 | 269 | 0.0 | 1.0 | 0.00 | 0.00 | 0.00 | 90 | 1010.3 |
| 20260906064530 | 81 | 250 | 0.0 | 2.0 | 0.00 | 0.00 | 0.00 | 90 | 1010.3 |
| 20260906063033 | 81 | 192 | 0.0 | 2.0 | 0.00 | 0.00 | 0.00 | 90 | 1010.3 |
| 20260906061535 | 81 | 246 | 0.0 | 1.0 | 0.00 | 0.00 | 0.00 | 89 | 1010.4 |
| 20260906060027 | 81 | 187 | 0.0 | 1.0 | 0.00 | 0.00 | 0.00 | 89 | 1010.3 |
| 20260906054525 | 81 | 136 | 0.0 | 0.0 | 0.00 | 0.00 | 0.00 | 89 | 1010.2 |
| 20260906053024 | 81 | 136 | 0.0 | 0.0 | 0.00 | 0.00 | 0.00 | 90 | 1010.3 |
| 20260906051523 | 81 | 136 | 0.0 | 0.0 | 0.00 | 0.00 | 0.00 | 89 | 1010.4 |
| 20260906050022 | 81 | 101 | 0.0 | 0.0 | 0.00 | 0.00 | 0.00 | 89 | 1010.4 |
| 20260906044527 | 81 | 101 | 0.0 | 0.0 | 0.00 | 0.00 | 0.00 | 89 | 1010.4 |
| 20260906043020 | 82 | 101 | 0.0 | 0.0 | 0.00 | 0.00 | 0.00 | 89 | 1010.5 |
| 20260906041520 | 82 | 101 | 0.0 | 0.0 | 0.00 | 0.00 | 0.00 | 88 | 1010.5 |
| 20260906040024 | 82 | 101 | 0.0 | 0.0 | 0.00 | 0.00 | 0.00 | 88 | 1010.6 |
| 20260906034621 | 83 | 101 | 0.0 | 0.0 | 0.00 | 0.00 | 0.00 | 88 | 1010.7 |
| 20260906033018 | 83 | 101 | 0.0 | 0.0 | 0.00 | 0.00 | 0.00 | 88 | 1010.7 |
| 20260906031534 | 83 | 113 | 0.0 | 0.0 | 0.00 | 0.00 | 0.00 | 87 | 1010.6 |
| 20260906030017 | 83 | 113 | 0.0 | 0.0 | 0.00 | 0.00 | 0.00 | 86 | 1010.7 |
| 20260906024516 | 84 | 113 | 0.0 | 0.0 | 0.00 | 0.00 | 0.00 | 85 | 1010.4 |
| 20260906023019 | 84 | 113 | 0.0 | 0.0 | 0.00 | 0.00 | 0.00 | 85 | 1010.3 |
| 20260906021516 | 84 | 113 | 0.0 | 0.0 | 0.00 | 0.00 | 0.00 | 85 | 1009.9 |
| 20260906020016 | 84 | 113 | 0.0 | 0.0 | 0.00 | 0.00 | 0.00 | 84 | 1009.8 |
| 20260906014515 | 84 | 113 | 0.0 | 0.0 | 0.00 | 0.00 | 0.00 | 84 | 1009.7 |
| 20260906013014 | 84 | 113 | 0.0 | 0.0 | 0.00 | 0.00 | 0.00 | 83 | 1009.5 |
| 20260906011516 | 85 | 113 | 0.0 | 0.0 | 0.00 | 0.00 | 0.00 | 83 | 1009.5 |
| 20260906010014 | 85 | 104 | 0.0 | 0.0 | 0.00 | 0.00 | 0.00 | 83 | 1009.4 |
| 20260906004513 | 85 | 111 | 0.0 | 1.0 | 0.00 | 0.00 | 0.00 | 82 | 1009.6 |
| 20260906003021 | 85 | 107 | 0.0 | 1.0 | 0.00 | 0.00 | 0.00 | 82 | 1009.6 |
| 20260906001512 | 86 | 100 | 0.0 | 3.0 | 0.00 | 0.00 | 0.00 | 81 | 1009.8 |
| 20260906000012 | 86 | 104 | 0.0 | 1.0 | 0.00 | 0.00 | 0.00 | 82 | 1010.1 |
| 20260905234511 | 86 | 119 | 0.0 | 2.0 | 0.00 | 0.00 | 0.00 | 81 | 1010.1 |
| 20260905233012 | 86 | 60 | 0.0 | 2.0 | 0.00 | 0.00 | 0.00 | 81 | 1009.9 |
| 20260905231511 | 87 | 123 | 0.0 | 3.0 | 0.00 | 0.00 | 0.00 | 81 | 1009.7 |
| 20260905230012 | 87 | 108 | 0.0 | 1.0 | 0.00 | 0.00 | 0.00 | 80 | 1009.8 |
| 20260905224509 | 87 | 127 | 0.0 | 2.0 | 0.00 | 0.00 | 0.00 | 80 | 1009.8 |
| 20260905223028 | 87 | 113 | 0.0 | 3.0 | 0.00 | 0.00 | 0.00 | 79 | 1009.8 |
| 20260905221527 | 88 | 119 | 0.0 | 5.0 | 0.00 | 0.00 | 0.00 | 78 | 1009.7 |
| 20260905220008 | 88 | 79 | 0.0 | 3.0 | 0.00 | 0.00 | 0.00 | 76 | 1009.6 |
| 20260905214506 | 89 | 96 | 1.0 | 7.0 | 0.00 | 0.00 | 0.00 | 73 | 1009.6 |
| 20260905213005 | 90 | 142 | 0.0 | 0.0 | 0.00 | 0.00 | 0.00 | 68 | 1009.8 |
| 20260905211512 | 91 | 142 | 0.0 | 0.0 | 0.00 | 0.00 | 0.00 | 67 | 1009.8 |
| 20260905210005 | 91 | 142 | 0.0 | 0.0 | 0.00 | 0.00 | 0.00 | 68 | 1009.9 |
| 20260905204501 | 91 | 245 | 0.0 | 2.0 | 0.00 | 0.00 | 0.00 | 68 | 1010.1 |
| 20260905203058 | 90 | 171 | 0.0 | 1.0 | 0.00 | 0.00 | 0.00 | 71 | 1010.3 |
| 20260905201603 | 89 | 217 | 0.0 | 2.0 | 0.00 | 0.00 | 0.00 | 74 | 1010.4 |
| 20260905200113 | 88 | 182 | 0.0 | 2.0 | 0.00 | 0.00 | 0.00 | 75 | 1010.5 |
| 20260905194552 | 88 | 192 | 0.0 | 1.0 | 0.00 | 0.37 | 0.00 | 76 | 1010.4 |
| 20260905193051 | 87 | 182 | 0.0 | 1.0 | 0.00 | 0.37 | 0.00 | 76 | 1010.6 |
| 20260905191552 | 87 | 182 | 0.0 | 2.0 | 0.00 | 0.37 | 0.00 | 77 | 1011.0 |
| 20260905190051 | 88 | 67 | 0.0 | 2.0 | 0.00 | 0.37 | 0.00 | 77 | 1011.3 |
| 20260905184552 | 88 | 147 | 0.0 | 2.0 | 0.00 | 0.39 | 0.00 | 76 | 1011.3 |
| 20260905183050 | 87 | 85 | 0.0 | 2.0 | 0.00 | 0.39 | 0.00 | 77 | 1011.5 |
| 20260905181548 | 86 | 86 | 0.0 | 3.0 | 0.00 | 0.39 | 0.00 | 79 | 1011.7 |
| 20260905180046 | 84 | 225 | 0.0 | 3.0 | 0.00 | 0.39 | 0.00 | 80 | 1012.0 |
| 20260905174544 | 84 | 154 | 0.0 | 4.0 | 0.00 | 0.39 | 0.00 | 80 | 1012.2 |
| 20260905173044 | 83 | 102 | 0.0 | 7.0 | 0.00 | 0.39 | 0.00 | 77 | 1012.7 |
| 20260905171557 | 84 | 334 | 2.0 | 9.0 | 0.00 | 0.39 | 0.00 | 76 | 1012.9 |
| 20260905170042 | 86 | 211 | 0.0 | 5.0 | 0.00 | 0.39 | 0.00 | 80 | 1013.0 |
| 20260905164541 | 86 | 171 | 1.0 | 6.0 | 0.00 | 0.39 | 0.00 | 77 | 1012.8 |
| 20260905163038 | 86 | 246 | 1.0 | 6.0 | 0.00 | 0.39 | 0.00 | 76 | 1012.6 |
| 20260905161540 | 86 | 56 | 5.0 | 10.0 | 0.00 | 0.39 | 0.00 | 78 | 1012.5 |
| 20260905160044 | 87 | 83 | 3.0 | 11.0 | 0.00 | 0.39 | 0.00 | 79 | 1012.5 |
| 20260905154548 | 89 | 292 | 1.0 | 4.0 | 0.00 | 0.39 | 0.00 | 76 | 1012.4 |
| 20260905153031 | 88 | 248 | 1.0 | 4.0 | 0.00 | 0.39 | 0.00 | 78 | 1012.3 |
| 20260905151531 | 88 | 40 | 1.0 | 4.0 | 0.00 | 0.39 | 0.00 | 79 | 1012.3 |
| 20260905150028 | 88 | 60 | 1.0 | 4.0 | 0.00 | 0.39 | 0.00 | 79 | 1012.3 |